Terug naar catalogus

FENGYUN 1C DEB

ActiefSSO
NORAD 29827·DEBRIS·🇨🇳 China

Gelanceerd May 10, 1999 vanaf Taiyuan Satellite Launch Center

Loading…

Volgende Passages (komende 24 uur)

TLE

VersSource: Space-Track

Epoch: Sep 14, 2026, 11:28 UTC

1 29827U 99025DV  26257.47784880  .00000349  00000-0  17694-3 0  9997
2 29827  98.6230 247.1776 0024301 240.2445 271.8557 14.22033830 17710

Volg FENGYUN 1C DEB in realtime met AllMySat

Download on the App Store